Time,TemperatureF,DewpointF,PressureIn,WindDirection,WindDirectionDegrees,WindSpeedMPH,WindSpeedGustMPH,Humidity,HourlyPrecipIn,Conditions,Clouds,dailyrainin,SoftwareType,DateUTC
2013-08-14 00:02:00,67.3,52.0,29.88,SSE,164,1.0,3.0,59,0.00,,,0.00,weatherlink.com 1.10,2013-08-14 07:02:00,
2013-08-14 00:18:00,66.8,53.0,29.88,South,179,0.0,2.0,61,0.00,,,0.00,weatherlink.com 1.10,2013-08-14 07:18:00,
2013-08-14 00:33:00,65.9,53.0,29.88,SSE,163,0.0,3.0,63,0.00,,,0.00,weatherlink.com 1.10,2013-08-14 07:33:00,
2013-08-14 00:48:00,64.9,52.0,29.88,South,175,0.0,2.0,63,0.00,,,0.00,weatherlink.com 1.10,2013-08-14 07:48:00,
2013-08-14 01:03:00,64.3,53.0,29.88,SSE,150,2.0,3.0,66,0.00,,,0.00,weatherlink.com 1.10,2013-08-14 08:03:00,
2013-08-14 01:18:00,64.9,53.0,29.88,ESE,117,0.0,2.0,66,0.00,,,0.00,weatherlink.com 1.10,2013-08-14 08:18:00,
2013-08-14 01:33:00,64.4,53.0,29.88,SE,144,0.0,3.0,66,0.00,,,0.00,weatherlink.com 1.10,2013-08-14 08:33:00,
2013-08-14 01:48:00,63.7,53.0,29.88,SE,145,1.0,2.0,68,0.00,,,0.00,weatherlink.com 1.10,2013-08-14 08:48:00,
2013-08-14 02:03:00,63.2,53.0,29.89,SSE,149,1.0,2.0,69,0.00,,,0.00,weatherlink.com 1.10,2013-08-14 09:03:00,
2013-08-14 02:18:00,62.7,52.0,29.88,SSE,148,1.0,2.0,69,0.00,,,0.00,weatherlink.com 1.10,2013-08-14 09:18:00,
2013-08-14 02:33:00,62.5,53.0,29.89,SSE,148,0.0,2.0,72,0.00,,,0.00,weatherlink.com 1.10,2013-08-14 09:33:00,
2013-08-14 02:48:00,62.1,53.0,29.89,SE,146,0.0,3.0,72,0.00,,,0.00,weatherlink.com 1.10,2013-08-14 09:48:00,
2013-08-14 03:03:00,61.5,52.0,29.89,SE,146,0.0,1.0,71,0.00,,,0.00,weatherlink.com 1.10,2013-08-14 10:03:00,
2013-08-14 03:18:00,60.7,52.0,29.89,South,186,0.0,3.0,72,0.00,,,0.00,weatherlink.com 1.10,2013-08-14 10:18:00,
2013-08-14 03:33:00,60.5,52.0,29.89,South,184,0.0,2.0,74,0.00,,,0.00,weatherlink.com 1.10,2013-08-14 10:33:00,
2013-08-14 03:48:00,59.8,52.0,29.88,South,178,2.0,3.0,74,0.00,,,0.00,weatherlink.com 1.10,2013-08-14 10:48:00,
2013-08-14 04:03:00,60.3,53.0,29.88,SSE,162,0.0,2.0,76,0.00,,,0.00,weatherlink.com 1.10,2013-08-14 11:03:00,
2013-08-14 04:18:00,60.3,53.0,29.88,SE,142,1.0,3.0,76,0.00,,,0.00,weatherlink.com 1.10,2013-08-14 11:18:00,
2013-08-14 04:33:00,60.2,53.0,29.89,SE,141,0.0,2.0,77,0.00,,,0.00,weatherlink.com 1.10,2013-08-14 11:33:00,
2013-08-14 04:48:00,59.6,52.0,29.89,SE,141,1.0,2.0,77,0.00,,,0.00,weatherlink.com 1.10,2013-08-14 11:48:00,
2013-08-14 05:03:00,59.1,53.0,29.89,SE,139,1.0,3.0,79,0.00,,,0.00,weatherlink.com 1.10,2013-08-14 12:03:00,
2013-08-14 05:18:00,59.0,53.0,29.89,SE,138,0.0,2.0,79,0.00,,,0.00,weatherlink.com 1.10,2013-08-14 12:18:00,
2013-08-14 05:33:00,58.4,52.0,29.89,ESE,120,1.0,3.0,80,0.00,,,0.00,weatherlink.com 1.10,2013-08-14 12:33:00,
2013-08-14 05:48:00,58.4,52.0,29.89,SSE,163,1.0,3.0,79,0.00,,,0.00,weatherlink.com 1.10,2013-08-14 12:48:00,
2013-08-14 06:03:00,58.5,52.0,29.89,SE,136,1.0,3.0,78,0.00,,,0.00,weatherlink.com 1.10,2013-08-14 13:03:00,
2013-08-14 06:18:00,58.8,52.0,29.90,ESE,117,2.0,4.0,79,0.00,,,0.00,weatherlink.com 1.10,2013-08-14 13:18:00,
2013-08-14 06:33:00,58.7,52.0,29.90,SE,128,0.0,3.0,78,0.00,,,0.00,weatherlink.com 1.10,2013-08-14 13:33:00,
2013-08-14 06:49:00,58.7,52.0,29.90,SSE,160,1.0,4.0,78,0.00,,,0.00,weatherlink.com 1.10,2013-08-14 13:49:00,
2013-08-14 07:04:00,60.4,52.0,29.91,South,181,3.0,4.0,74,0.00,,,0.00,weatherlink.com 1.10,2013-08-14 14:04:00,
2013-08-14 07:19:00,61.7,53.0,29.91,South,183,2.0,4.0,72,0.00,,,0.00,weatherlink.com 1.10,2013-08-14 14:19:00,
2013-08-14 07:34:00,62.8,53.0,29.91,South,176,2.0,6.0,71,0.00,,,0.00,weatherlink.com 1.10,2013-08-14 14:34:00,
2013-08-14 07:49:00,63.5,54.0,29.92,SSE,162,4.0,5.0,71,0.00,,,0.00,weatherlink.com 1.10,2013-08-14 14:49:00,
2013-08-14 08:04:00,64.2,55.0,29.91,SSW,202,3.0,6.0,71,0.00,,,0.00,weatherlink.com 1.10,2013-08-14 15:04:00,
2013-08-14 08:19:00,65.1,56.0,29.92,SSW,198,1.0,7.0,72,0.00,,,0.00,weatherlink.com 1.10,2013-08-14 15:19:00,
2013-08-14 08:34:00,66.1,56.0,29.92,SSE,165,4.0,7.0,71,0.00,,,0.00,weatherlink.com 1.10,2013-08-14 15:34:00,
2013-08-14 08:49:00,67.3,57.0,29.92,SW,216,3.0,6.0,69,0.00,,,0.00,weatherlink.com 1.10,2013-08-14 15:49:00,
2013-08-14 09:04:00,68.6,57.0,29.92,SSW,195,3.0,6.0,67,0.00,,,0.00,weatherlink.com 1.10,2013-08-14 16:04:00,
2013-08-14 09:19:00,70.0,58.0,29.92,SW,227,2.0,5.0,65,0.00,,,0.00,weatherlink.com 1.10,2013-08-14 16:19:00,
2013-08-14 09:34:00,71.3,57.0,29.93,WSW,242,3.0,6.0,61,0.00,,,0.00,weatherlink.com 1.10,2013-08-14 16:34:00,
2013-08-14 09:49:00,72.8,57.0,29.92,SSW,208,5.0,5.0,59,0.00,,,0.00,weatherlink.com 1.10,2013-08-14 16:49:00,
2013-08-14 10:04:00,73.3,57.0,29.92,SW,221,4.0,7.0,58,0.00,,,0.00,weatherlink.com 1.10,2013-08-14 17:04:00,
2013-08-14 10:20:00,74.4,59.0,29.92,SE,139,3.0,5.0,58,0.00,,,0.00,weatherlink.com 1.10,2013-08-14 17:20:00,
2013-08-14 10:35:00,75.7,58.0,29.92,SW,219,3.0,5.0,55,0.00,,,0.00,weatherlink.com 1.10,2013-08-14 17:35:00,
2013-08-14 10:50:00,76.9,58.0,29.92,South,182,4.0,7.0,52,0.00,,,0.00,weatherlink.com 1.10,2013-08-14 17:50:00,
2013-08-14 11:20:00,78.7,58.0,29.92,South,181,5.0,6.0,49,0.00,,,0.00,weatherlink.com 1.10,2013-08-14 18:20:00,
2013-08-14 11:35:00,79.7,59.0,29.92,SW,231,3.0,6.0,50,0.00,,,0.00,weatherlink.com 1.10,2013-08-14 18:35:00,
2013-08-14 11:50:00,81.1,59.0,29.91,SSW,202,3.0,8.0,47,0.00,,,0.00,weatherlink.com 1.10,2013-08-14 18:50:00,
2013-08-14 12:05:00,82.0,59.0,29.91,WSW,254,3.0,9.0,46,0.00,,,0.00,weatherlink.com 1.10,2013-08-14 19:05:00,
2013-08-14 12:20:00,83.4,60.0,29.91,SW,221,4.0,7.0,46,0.00,,,0.00,weatherlink.com 1.10,2013-08-14 19:20:00,
2013-08-14 12:35:00,84.5,61.0,29.90,SSW,192,5.0,8.0,45,0.00,,,0.00,weatherlink.com 1.10,2013-08-14 19:35:00,
2013-08-14 12:50:00,85.6,61.0,29.90,SW,230,6.0,9.0,44,0.00,,,0.00,weatherlink.com 1.10,2013-08-14 19:50:00,
2013-08-14 13:05:00,86.0,60.0,29.89,SSW,205,7.0,9.0,41,0.00,,,0.00,weatherlink.com 1.10,2013-08-14 20:05:00,
2013-08-14 13:36:00,87.5,60.0,29.89,SW,225,3.0,9.0,39,0.00,,,0.00,weatherlink.com 1.10,2013-08-14 20:36:00,
2013-08-14 13:50:00,88.5,60.0,29.88,SW,226,1.0,7.0,38,0.00,,,0.00,weatherlink.com 1.10,2013-08-14 20:50:00,
2013-08-14 14:05:00,89.1,58.0,29.88,SW,223,1.0,7.0,35,0.00,,,0.00,weatherlink.com 1.10,2013-08-14 21:05:00,
2013-08-14 14:21:00,90.1,59.0,29.88,SSW,208,5.0,9.0,35,0.00,,,0.00,weatherlink.com 1.10,2013-08-14 21:21:00,
2013-08-14 14:36:00,90.5,57.0,29.87,SSW,198,5.0,8.0,32,0.00,,,0.00,weatherlink.com 1.10,2013-08-14 21:36:00,
2013-08-14 14:51:00,91.5,60.0,29.87,South,189,6.0,8.0,35,0.00,,,0.00,weatherlink.com 1.10,2013-08-14 21:51:00,
2013-08-14 15:06:00,91.5,57.0,29.86,South,185,2.0,7.0,31,0.00,,,0.00,weatherlink.com 1.10,2013-08-14 22:06:00,
2013-08-14 15:21:00,91.8,57.0,29.86,WSW,251,5.0,9.0,31,0.00,,,0.00,weatherlink.com 1.10,2013-08-14 22:21:00,
2013-08-14 15:36:00,92.3,57.0,29.85,SW,226,5.0,8.0,30,0.00,,,0.00,weatherlink.com 1.10,2013-08-14 22:36:00,
2013-08-14 15:51:00,92.8,58.0,29.85,SSE,166,4.0,9.0,31,0.00,,,0.00,weatherlink.com 1.10,2013-08-14 22:51:00,
2013-08-14 16:21:00,92.6,57.0,29.84,WSW,241,4.0,9.0,30,0.00,,,0.00,weatherlink.com 1.10,2013-08-14 23:21:00,
2013-08-14 16:36:00,92.9,55.0,29.83,SSW,198,7.0,8.0,28,0.00,,,0.00,weatherlink.com 1.10,2013-08-14 23:36:00,
2013-08-14 16:51:00,92.9,56.0,29.83,SSW,213,6.0,12.0,29,0.00,,,0.00,weatherlink.com 1.10,2013-08-14 23:51:00,
2013-08-14 17:06:00,92.3,57.0,29.83,WSW,238,6.0,10.0,30,0.00,,,0.00,weatherlink.com 1.10,2013-08-15 00:06:00,
2013-08-14 17:21:00,91.5,57.0,29.83,West,260,5.0,12.0,31,0.00,,,0.00,weatherlink.com 1.10,2013-08-15 00:21:00,
2013-08-14 17:36:00,90.3,57.0,29.82,WSW,238,8.0,12.0,32,0.00,,,0.00,weatherlink.com 1.10,2013-08-15 00:36:00,
2013-08-14 17:51:00,89.7,57.0,29.82,SW,233,4.0,11.0,33,0.00,,,0.00,weatherlink.com 1.10,2013-08-15 00:51:00,
2013-08-14 18:06:00,88.8,55.0,29.82,SW,219,4.0,12.0,32,0.00,,,0.00,weatherlink.com 1.10,2013-08-15 01:06:00,
2013-08-14 18:21:00,87.9,55.0,29.82,WSW,242,2.0,15.0,33,0.00,,,0.00,weatherlink.com 1.10,2013-08-15 01:21:00,
2013-08-14 18:36:00,86.9,56.0,29.82,SSW,212,7.0,10.0,35,0.00,,,0.00,weatherlink.com 1.10,2013-08-15 01:36:00,
2013-08-14 18:51:00,85.7,56.0,29.82,South,171,7.0,11.0,36,0.00,,,0.00,weatherlink.com 1.10,2013-08-15 01:51:00,
2013-08-14 19:06:00,83.7,55.0,29.82,SSW,196,7.0,14.0,37,0.00,,,0.00,weatherlink.com 1.10,2013-08-15 02:06:00,
2013-08-14 19:21:00,82.3,55.0,29.82,SW,223,6.0,12.0,39,0.00,,,0.00,weatherlink.com 1.10,2013-08-15 02:21:00,
2013-08-14 19:36:00,80.9,56.0,29.82,SSW,201,0.0,10.0,42,0.00,,,0.00,weatherlink.com 1.10,2013-08-15 02:36:00,
2013-08-14 19:51:00,79.4,56.0,29.83,SSW,192,3.0,7.0,45,0.00,,,0.00,weatherlink.com 1.10,2013-08-15 02:51:00,
2013-08-14 20:06:00,77.6,56.0,29.83,SW,224,6.0,9.0,47,0.00,,,0.00,weatherlink.com 1.10,2013-08-15 03:06:00,
2013-08-14 20:21:00,76.2,56.0,29.83,SSW,200,4.0,9.0,50,0.00,,,0.00,weatherlink.com 1.10,2013-08-15 03:21:00,
2013-08-14 20:36:00,75.2,56.0,29.83,South,177,2.0,9.0,52,0.00,,,0.00,weatherlink.com 1.10,2013-08-15 03:36:00,
2013-08-14 20:51:00,74.3,56.0,29.84,South,179,3.0,6.0,54,0.00,,,0.00,weatherlink.com 1.10,2013-08-15 03:51:00,
2013-08-14 21:06:00,73.1,57.0,29.84,SSE,158,3.0,8.0,57,0.00,,,0.00,weatherlink.com 1.10,2013-08-15 04:06:00,
2013-08-14 21:21:00,71.9,57.0,29.84,SSW,209,4.0,6.0,60,0.00,,,0.00,weatherlink.com 1.10,2013-08-15 04:21:00,
2013-08-14 21:36:00,71.4,58.0,29.85,South,186,3.0,7.0,62,0.00,,,0.00,weatherlink.com 1.10,2013-08-15 04:36:00,
2013-08-14 21:51:00,70.8,58.0,29.85,SSW,205,2.0,5.0,64,0.00,,,0.00,weatherlink.com 1.10,2013-08-15 04:51:00,
2013-08-14 22:06:00,70.3,58.0,29.85,SSE,165,3.0,6.0,65,0.00,,,0.00,weatherlink.com 1.10,2013-08-15 05:06:00,
2013-08-14 22:21:00,69.9,58.0,29.85,SSW,192,2.0,6.0,67,0.00,,,0.00,weatherlink.com 1.10,2013-08-15 05:21:00,
2013-08-14 22:36:00,69.5,58.0,29.85,SSE,158,1.0,5.0,68,0.00,,,0.00,weatherlink.com 1.10,2013-08-15 05:36:00,
2013-08-14 22:51:00,69.1,59.0,29.85,SSW,198,4.0,7.0,70,0.00,,,0.00,weatherlink.com 1.10,2013-08-15 05:51:00,
2013-08-14 23:06:00,68.8,59.0,29.85,South,175,1.0,7.0,71,0.00,,,0.00,weatherlink.com 1.10,2013-08-15 06:06:00,
2013-08-14 23:21:00,68.3,59.0,29.86,SE,144,1.0,5.0,72,0.00,,,0.00,weatherlink.com 1.10,2013-08-15 06:21:00,
2013-08-14 23:36:00,67.5,59.0,29.86,SE,141,0.0,2.0,74,0.00,,,0.00,weatherlink.com 1.10,2013-08-15 06:36:00,
2013-08-14 23:51:00,66.7,59.0,29.86,SE,127,1.0,3.0,76,0.00,,,0.00,weatherlink.com 1.10,2013-08-15 06:51:00,